Вернуться в каталог

FENGYUN 1C DEB

АктивенSSO
NORAD 31026·DEBRIS·🇨🇳 China

Запущен May 10, 1999 с Taiyuan Satellite Launch Center

Loading…

Ближайшие Пролёты (ближайшие 24 часа)

TLE

СвежийSource: Space-Track

Эпоха: Sep 12, 2026, 00:53 UTC

1 31026U 99025BDU 26255.03722635  .00000087  00000-0  10686-3 0  9994
2 31026  98.7899 177.7976 0134483 163.1445 263.2718 13.83507886718054

Отслеживайте FENGYUN 1C DEB в реальном времени с AllMySat

Download on the App Store